Вернуться в каталог

STARLINK-37882

АктивенСвязьVLEO
NORAD 69954·PAYLOAD·🇺🇸 United States

Запущен Jul 9, 2026 с Cape Canaveral Space Force Station

Loading…

Ближайшие Пролёты (ближайшие 24 часа)

TLE

СвежийSource: CelesTrak SupGP

Эпоха: Sep 15, 2026, 02:52 UTC

1 69954C 26157M   26258.11993056  .00067550  00000+0  19952-2 0  2589
2 69954  53.1600 358.7851 0001154  88.5579  75.8165 15.34365502    17

Отслеживайте STARLINK-37882 в реальном времени с AllMySat

Download on the App Store